Location: Cisewo
(53.3833°N, 14.9000°E)
Time: 12:18:02
(UTC+00:00)

Cosmos 2227 - Pass Details

Date: 18 April 2021
Orbit: 835 x 861 km, 71.0° (Epoch: 14 May)

Event Time Altitude Azimuth Distance (km) Brightness Sun altitude
Exits shadow 22:34:50 68° 171° (S) 927 4.1 -25.2°
Maximum altitude 22:35:29 76° 118° (ESE) 891 4.1 -25.3°
Drops below altitude 10° 22:41:14 10° 34° (NE) 2,506 7.3 -25.3°
Sets 22:43:42 0° 33° (NNE) 3,444 8.2 -25.4°
